This is the latest recevied weather packets stored in our database for station/object KB3MVG-13. If no packets are shown the sender has not sent any weather packets the latest 10 day(s).
| Time | Temp. | Humidity | Pressure | Rain* | Wind** | Luminosity | Snow |
|---|---|---|---|---|---|---|---|
| 1777563793 | 4.44° C | 60% | 1023.8 hPa | 0 mm | - | 176 W/m² | - |
| 1777552557 | 4.44° C | 63% | 1023.9 hPa | 0 mm | - | 15 W/m² | - |
| 1777551337 | 5° C | 62% | 1023.7 hPa | 0 mm | - | 0 W/m² | - |
| 1777544716 | 5.56° C | 78% | 1024.5 hPa | 0 mm | - | 0 W/m² | - |
| 1777540537 | 5.56° C | 69% | 1023.3 hPa | 0 mm | - | 0 W/m² | - |
| 1777539316 | 5.56° C | 68% | 1022.8 hPa | 0 mm | - | 0 W/m² | - |
| 1777532116 | 5° C | 83% | 1025.5 hPa | 0.25 mm | - | 0 W/m² | - |
| 1777530916 | 5° C | 84% | 1025.7 hPa | 0.25 mm | - | 0 W/m² | - |
| 1777527316 | 6.11° C | 75% | 1025.8 hPa | 0 mm | - | 0 W/m² | - |
| 1777526136 | 6.11° C | 72% | 1025.7 hPa | 0 mm | - | 0 W/m² | - |
| 1777523716 | 6.11° C | 73% | 1025.8 hPa | 0 mm | - | 0 W/m² | - |
| 1777522515 | 6.11° C | 73% | 1025.8 hPa | 0 mm | - | 0 W/m² | - |
| 1777521915 | 6.11° C | 75% | 1025.3 hPa | 0 mm | - | 0 W/m² | - |
| 1777520115 | 5.56° C | 78% | 1025.1 hPa | 0 mm | - | 0 W/m² | - |
| 1777519516 | 5.56° C | 78% | 1025 hPa | 0 mm | - | 0 W/m² | - |
| 1777517735 | 6.67° C | 73% | 1024.8 hPa | 0 mm | - | 0 W/m² | - |
| 1777516515 | 6.67° C | 73% | 1024 hPa | 0 mm | - | 0 W/m² | - |
| 1777515316 | 6.67° C | 73% | 1023.4 hPa | 0 mm | - | 0 W/m² | - |
| 1777511735 | 7.22° C | 77% | 1021.8 hPa | 0 mm | - | 10 W/m² | - |
| 1777508715 | 7.78° C | 73% | 1020.9 hPa | 0.25 mm | - | 52 W/m² | - |
| 1777507515 | 7.78° C | 75% | 1021 hPa | 0.25 mm | - | 218 W/m² | - |
| 1777493715 | 8.89° C | 55% | 1021.6 hPa | 0 mm | - | 22 W/m² | - |
| 1777493135 | 12.22° C | 40% | 1022.1 hPa | 0 mm | - | 267 W/m² | - |
| 1777492535 | 11.67° C | 43% | 1021.9 hPa | 0 mm | - | 406 W/m² | - |
| 1777490715 | 11.67° C | 41% | 1021.8 hPa | 0 mm | - | 165 W/m² | - |
* Rain latest hour (hover to see other rain measurements)
** Current wind speed in m/s (hover to see current wind gust speed)